PRIVATE WETTERSTATION BILLIGHEIM-ALLFELD                       ZURCK
Wetterdaten: Montag, 13.11.2017
Datum Zeit Temp. A. Temp. A. min Temp. A. max Feuchte A. Luftdruck Regen Wind Richtung Richtung Sonnenschein ET Solar Taupunkt Windchill Windben Empfang
13.11.2017 00:00 2,1 C 2,1 C 2,1 C 91 % 1006,5 hPa 0,0 l/m 7,1 km/h (2 Bft) NW 311 0 min 0,000 mm 0 W/m 0,8 C 1,4 C 17,7 km/h (3 Bft) 100 %
13.11.2017 00:10 2,1 C 2,1 C 2,2 C 91 % 1006,5 hPa 0,0 l/m 5,7 km/h (1 Bft) NW 309 0 min 0,000 mm 0 W/m 0,8 C 2,1 C 19,3 km/h (3 Bft) 98 %
13.11.2017 00:20 2,2 C 2,1 C 2,2 C 91 % 1006,7 hPa 0,0 l/m 8,2 km/h (2 Bft) NW 304 0 min 0,000 mm 0 W/m 0,9 C 0,5 C 20,9 km/h (4 Bft) 98 %
13.11.2017 00:30 2,2 C 2,2 C 2,2 C 91 % 1006,8 hPa 0,0 l/m 6,7 km/h (2 Bft) W-NW 298 0 min 0,000 mm 0 W/m 0,9 C 1,9 C 17,7 km/h (3 Bft) 97 %
13.11.2017 00:40 2,2 C 2,2 C 2,2 C 91 % 1006,7 hPa 0,0 l/m 9,0 km/h (2 Bft) W 273 0 min 0,000 mm 0 W/m 0,9 C -0,2 C 22,5 km/h (4 Bft) 98 %
13.11.2017 00:50 2,2 C 2,2 C 2,2 C 91 % 1006,9 hPa 0,2 l/m 5,9 km/h (2 Bft) NW 314 0 min 0,000 mm 0 W/m 0,9 C 2,2 C 17,7 km/h (3 Bft) 97 %
13.11.2017 01:00 2,1 C 2,1 C 2,2 C 91 % 1007,0 hPa 0,0 l/m 3,5 km/h (1 Bft) W 278 0 min 0,000 mm 0 W/m 0,8 C 2,1 C 11,3 km/h (2 Bft) 98 %
13.11.2017 01:10 2,1 C 2,1 C 2,1 C 91 % 1007,2 hPa 0,0 l/m 1,2 km/h (1 Bft) NW 306 0 min 0,000 mm 0 W/m 0,8 C 2,1 C 8,0 km/h (2 Bft) 98 %
13.11.2017 01:20 2,2 C 2,1 C 2,2 C 91 % 1007,3 hPa 0,0 l/m 3,0 km/h (1 Bft) W-NW 302 0 min 0,000 mm 0 W/m 0,9 C 2,2 C 12,9 km/h (3 Bft) 97 %
13.11.2017 01:30 2,2 C 2,1 C 2,2 C 91 % 1007,4 hPa 0,0 l/m 2,9 km/h (1 Bft) W-NW 300 0 min 0,000 mm 0 W/m 0,9 C 2,2 C 8,0 km/h (2 Bft) 98 %
13.11.2017 01:40 2,2 C 2,2 C 2,2 C 91 % 1007,5 hPa 0,0 l/m 0,8 km/h (0 Bft) NW 309 0 min 0,000 mm 0 W/m 0,9 C 2,2 C 8,0 km/h (2 Bft) 98 %
13.11.2017 01:50 2,2 C 2,2 C 2,2 C 91 % 1007,6 hPa 0,0 l/m 1,3 km/h (1 Bft) W-NW 296 0 min 0,000 mm 0 W/m 0,9 C 2,2 C 6,4 km/h (2 Bft) 97 %
13.11.2017 02:00 2,2 C 2,2 C 2,2 C 91 % 1007,7 hPa 0,0 l/m 0,0 km/h (0 Bft) W-NW 296 0 min 0,000 mm 0 W/m 0,9 C 2,2 C 0,0 km/h (0 Bft) 97 %
13.11.2017 02:10 2,3 C 2,2 C 2,3 C 91 % 1007,9 hPa 0,0 l/m 0,4 km/h (0 Bft) W-NW 296 0 min 0,000 mm 0 W/m 1,0 C 2,3 C 4,8 km/h (1 Bft) 98 %
13.11.2017 02:20 2,3 C 2,3 C 2,3 C 91 % 1008,0 hPa 0,0 l/m 2,5 km/h (1 Bft) W-NW 303 0 min 0,000 mm 0 W/m 1,0 C 2,3 C 8,0 km/h (2 Bft) 97 %
13.11.2017 02:30 2,3 C 2,3 C 2,3 C 91 % 1008,1 hPa 0,0 l/m 1,0 km/h (0 Bft) W-NW 299 0 min 0,000 mm 0 W/m 1,0 C 2,3 C 6,4 km/h (2 Bft) 97 %
13.11.2017 02:40 2,3 C 2,3 C 2,3 C 91 % 1008,1 hPa 0,0 l/m 0,3 km/h (0 Bft) W-NW 298 0 min 0,000 mm 0 W/m 1,0 C 2,3 C 6,4 km/h (2 Bft) 98 %
13.11.2017 02:50 2,4 C 2,3 C 2,4 C 91 % 1008,2 hPa 0,0 l/m 1,6 km/h (1 Bft) W-NW 294 0 min 0,000 mm 0 W/m 1,1 C 2,4 C 11,3 km/h (2 Bft) 97 %
13.11.2017 03:00 2,4 C 2,3 C 2,4 C 91 % 1008,2 hPa 0,0 l/m 0,0 km/h (0 Bft) W-NW 292 0 min 0,000 mm 0 W/m 1,1 C 2,4 C 1,6 km/h (1 Bft) 98 %
13.11.2017 03:10 2,4 C 2,4 C 2,4 C 91 % 1008,4 hPa 0,0 l/m 0,4 km/h (0 Bft) W-NW 298 0 min 0,000 mm 0 W/m 1,1 C 2,4 C 4,8 km/h (1 Bft) 97 %
13.11.2017 03:20 2,4 C 2,4 C 2,4 C 91 % 1008,3 hPa 0,0 l/m 0,1 km/h (0 Bft) W-NW 288 0 min 0,000 mm 0 W/m 1,1 C 2,4 C 3,2 km/h (1 Bft) 98 %
13.11.2017 03:30 2,4 C 2,4 C 2,5 C 91 % 1008,4 hPa 0,0 l/m 0,2 km/h (0 Bft) W-NW 289 0 min 0,000 mm 0 W/m 1,1 C 2,4 C 4,8 km/h (1 Bft) 97 %
13.11.2017 03:40 2,5 C 2,4 C 2,5 C 91 % 1008,6 hPa 0,0 l/m 0,5 km/h (0 Bft) W-NW 291 0 min 0,000 mm 0 W/m 1,2 C 2,5 C 6,4 km/h (2 Bft) 97 %
13.11.2017 03:50 2,5 C 2,5 C 2,5 C 91 % 1008,7 hPa 0,0 l/m 1,3 km/h (1 Bft) W 277 0 min 0,000 mm 0 W/m 1,2 C 2,5 C 8,0 km/h (2 Bft) 98 %
13.11.2017 04:00 2,5 C 2,5 C 2,5 C 91 % 1008,8 hPa 0,0 l/m 1,1 km/h (1 Bft) W-NW 289 0 min 0,000 mm 0 W/m 1,2 C 2,5 C 8,0 km/h (2 Bft) 97 %
13.11.2017 04:10 2,4 C 2,4 C 2,5 C 91 % 1009,1 hPa 0,0 l/m 0,0 km/h (0 Bft) W-NW 289 0 min 0,000 mm 0 W/m 1,1 C 2,4 C 0,0 km/h (0 Bft) 98 %
13.11.2017 04:20 2,4 C 2,4 C 2,5 C 91 % 1009,2 hPa 0,0 l/m 0,0 km/h (0 Bft) W-NW 290 0 min 0,000 mm 0 W/m 1,1 C 2,4 C 1,6 km/h (1 Bft) 98 %
13.11.2017 04:30 2,5 C 2,4 C 2,5 C 91 % 1009,4 hPa 0,0 l/m 0,3 km/h (0 Bft) W-NW 302 0 min 0,000 mm 0 W/m 1,2 C 2,5 C 4,8 km/h (1 Bft) 98 %
13.11.2017 04:40 2,5 C 2,5 C 2,5 C 91 % 1009,6 hPa 0,0 l/m 0,0 km/h (0 Bft) W-NW 302 0 min 0,000 mm 0 W/m 1,2 C 2,5 C 0,0 km/h (0 Bft) 97 %
13.11.2017 04:50 2,6 C 2,5 C 2,6 C 91 % 1009,7 hPa 0,0 l/m 0,0 km/h (0 Bft) W-NW 302 0 min 0,000 mm 0 W/m 1,3 C 2,6 C 1,6 km/h (1 Bft) 89 %
13.11.2017 05:00 2,6 C 2,5 C 2,6 C 91 % 1009,6 hPa 0,0 l/m 1,6 km/h (1 Bft) NW 305 0 min 0,000 mm 0 W/m 1,3 C 2,6 C 8,0 km/h (2 Bft) 98 %
13.11.2017 05:10 2,6 C 2,6 C 2,6 C 91 % 1009,8 hPa 0,0 l/m 2,3 km/h (1 Bft) W-NW 297 0 min 0,000 mm 0 W/m 1,3 C 2,6 C 9,7 km/h (2 Bft) 97 %
13.11.2017 05:20 2,6 C 2,6 C 2,6 C 91 % 1010,0 hPa 0,0 l/m 4,1 km/h (1 Bft) W 267 0 min 0,000 mm 0 W/m 1,3 C 2,6 C 14,5 km/h (3 Bft) 98 %
13.11.2017 05:30 2,7 C 2,6 C 2,7 C 91 % 1010,1 hPa 0,0 l/m 6,1 km/h (2 Bft) NW 311 0 min 0,000 mm 0 W/m 1,4 C 2,7 C 14,5 km/h (3 Bft) 97 %
13.11.2017 05:40 2,7 C 2,7 C 2,7 C 91 % 1010,2 hPa 0,0 l/m 3,8 km/h (1 Bft) W-NW 296 0 min 0,000 mm 0 W/m 1,4 C 2,7 C 9,7 km/h (2 Bft) 89 %
13.11.2017 05:50 2,7 C 2,7 C 2,7 C 91 % 1010,3 hPa 0,0 l/m 2,2 km/h (1 Bft) W-NW 295 0 min 0,000 mm 0 W/m 1,4 C 2,7 C 11,3 km/h (2 Bft) 97 %
13.11.2017 06:00 2,7 C 2,7 C 2,7 C 91 % 1010,5 hPa 0,0 l/m 0,6 km/h (0 Bft) W-NW 295 0 min 0,000 mm 0 W/m 1,4 C 2,7 C 6,4 km/h (2 Bft) 97 %
13.11.2017 06:10 2,7 C 2,7 C 2,7 C 91 % 1010,4 hPa 0,0 l/m 1,9 km/h (1 Bft) NW 312 0 min 0,000 mm 0 W/m 1,4 C 2,7 C 8,0 km/h (2 Bft) 98 %
13.11.2017 06:20 2,7 C 2,7 C 2,7 C 91 % 1010,8 hPa 0,0 l/m 0,1 km/h (0 Bft) W-NW 303 0 min 0,000 mm 0 W/m 1,4 C 2,7 C 3,2 km/h (1 Bft) 97 %
13.11.2017 06:30 2,6 C 2,6 C 2,7 C 91 % 1010,9 hPa 0,0 l/m 0,0 km/h (0 Bft) W-NW 303 0 min 0,000 mm 0 W/m 1,3 C 2,6 C 0,0 km/h (0 Bft) 90 %
13.11.2017 06:40 2,6 C 2,6 C 2,6 C 91 % 1010,8 hPa 0,0 l/m 1,4 km/h (1 Bft) W-NW 303 0 min 0,000 mm 0 W/m 1,3 C 2,6 C 6,4 km/h (2 Bft) 98 %
13.11.2017 06:50 2,6 C 2,6 C 2,6 C 91 % 1011,2 hPa 0,0 l/m 0,0 km/h (0 Bft) NW 304 0 min 0,000 mm 0 W/m 1,3 C 2,6 C 0,0 km/h (0 Bft) 99 %
13.11.2017 07:00 2,6 C 2,6 C 2,6 C 91 % 1011,5 hPa 0,0 l/m 0,0 km/h (0 Bft) NW 304 0 min 0,000 mm 0 W/m 1,3 C 2,6 C 0,0 km/h (0 Bft) 100 %
13.11.2017 07:10 2,6 C 2,6 C 2,6 C 91 % 1011,5 hPa 0,0 l/m 0,0 km/h (0 Bft) W-NW 303 0 min 0,000 mm 0 W/m 1,3 C 2,6 C 1,6 km/h (1 Bft) 100 %
13.11.2017 07:20 2,7 C 2,6 C 2,7 C 91 % 1011,7 hPa 0,0 l/m 0,0 km/h (0 Bft) W-NW 303 0 min 0,000 mm 0 W/m 1,4 C 2,7 C 0,0 km/h (0 Bft) 100 %
13.11.2017 07:30 2,7 C 2,6 C 2,7 C 91 % 1011,8 hPa 0,0 l/m 0,0 km/h (0 Bft) W-NW 303 0 min 0,000 mm 0 W/m 1,4 C 2,7 C 0,0 km/h (0 Bft) 100 %
13.11.2017 07:40 2,7 C 2,6 C 2,7 C 91 % 1012,1 hPa 0,0 l/m 0,0 km/h (0 Bft) W-NW 303 0 min 0,000 mm 0 W/m 1,4 C 2,7 C 0,0 km/h (0 Bft) 100 %
13.11.2017 07:50 2,7 C 2,6 C 2,7 C 91 % 1012,5 hPa 0,0 l/m 0,0 km/h (0 Bft) W-NW 303 0 min 0,000 mm 0 W/m 1,4 C 2,7 C 0,0 km/h (0 Bft) 100 %
13.11.2017 08:00 2,7 C 2,7 C 2,7 C 91 % 1012,6 hPa 0,0 l/m 0,0 km/h (0 Bft) W-NW 303 0 min 0,000 mm 11 W/m 1,4 C 2,7 C 0,0 km/h (0 Bft) 100 %
13.11.2017 08:10 2,7 C 2,7 C 2,7 C 91 % 1012,8 hPa 0,0 l/m 0,0 km/h (0 Bft) W-NW 303 0 min 0,000 mm 18 W/m 1,4 C 2,7 C 0,0 km/h (0 Bft) 91 %
13.11.2017 08:20 2,8 C 2,7 C 2,8 C 91 % 1013,1 hPa 0,2 l/m 0,0 km/h (0 Bft) W-NW 303 0 min 0,000 mm 18 W/m 1,5 C 2,8 C 0,0 km/h (0 Bft) 100 %
13.11.2017 08:30 2,8 C 2,7 C 2,8 C 91 % 1013,4 hPa 0,0 l/m 0,0 km/h (0 Bft) W-NW 303 0 min 0,000 mm 28 W/m 1,5 C 2,8 C 0,0 km/h (0 Bft) 100 %
13.11.2017 08:40 2,9 C 2,8 C 2,9 C 91 % 1013,4 hPa 0,0 l/m 0,0 km/h (0 Bft) W-NW 303 0 min 0,000 mm 49 W/m 1,6 C 2,9 C 0,0 km/h (0 Bft) 99 %
13.11.2017 08:50 3,1 C 2,9 C 3,1 C 91 % 1013,6 hPa 0,0 l/m 0,2 km/h (0 Bft) W-NW 303 0 min 0,000 mm 116 W/m 1,8 C 3,1 C 4,8 km/h (1 Bft) 100 %
13.11.2017 09:00 3,3 C 3,1 C 3,3 C 91 % 1013,6 hPa 0,2 l/m 0,0 km/h (0 Bft) W-NW 303 0 min 0,025 mm 60 W/m 2,0 C 3,3 C 0,0 km/h (0 Bft) 100 %
13.11.2017 09:10 3,3 C 3,3 C 3,3 C 91 % 1013,7 hPa 0,0 l/m 0,8 km/h (0 Bft) W-NW 298 0 min 0,000 mm 83 W/m 2,0 C 3,3 C 4,8 km/h (1 Bft) 100 %
13.11.2017 09:20 3,4 C 3,3 C 3,4 C 91 % 1013,9 hPa 0,0 l/m 0,2 km/h (0 Bft) W-NW 298 0 min 0,000 mm 70 W/m 2,1 C 3,4 C 3,2 km/h (1 Bft) 100 %
13.11.2017 09:30 3,5 C 3,4 C 3,5 C 91 % 1014,0 hPa 0,0 l/m 0,2 km/h (0 Bft) W-NW 298 0 min 0,000 mm 84 W/m 2,2 C 3,5 C 4,8 km/h (1 Bft) 100 %
13.11.2017 09:40 3,5 C 3,4 C 3,5 C 91 % 1014,2 hPa 0,0 l/m 0,0 km/h (0 Bft) W-NW 302 0 min 0,000 mm 88 W/m 2,2 C 3,5 C 0,0 km/h (0 Bft) 100 %
13.11.2017 09:50 3,7 C 3,4 C 3,7 C 91 % 1014,2 hPa 0,0 l/m 0,0 km/h (0 Bft) W-NW 302 0 min 0,000 mm 125 W/m 2,4 C 3,7 C 0,0 km/h (0 Bft) 100 %
13.11.2017 10:00 3,9 C 3,7 C 3,9 C 91 % 1014,3 hPa 0,0 l/m 2,2 km/h (1 Bft) W-NW 300 0 min 0,026 mm 104 W/m 2,6 C 3,9 C 8,0 km/h (2 Bft) 91 %
13.11.2017 10:10 4,1 C 3,9 C 4,1 C 91 % 1014,3 hPa 0,0 l/m 0,5 km/h (0 Bft) W-NW 299 0 min 0,000 mm 54 W/m 2,8 C 4,1 C 6,4 km/h (2 Bft) 100 %
13.11.2017 10:20 4,1 C 4,0 C 4,1 C 91 % 1014,4 hPa 0,0 l/m 0,0 km/h (0 Bft) W-NW 299 0 min 0,000 mm 84 W/m 2,8 C 4,1 C 1,6 km/h (1 Bft) 100 %
13.11.2017 10:30 4,2 C 4,1 C 4,2 C 91 % 1014,5 hPa 0,0 l/m 1,4 km/h (1 Bft) NW 307 0 min 0,000 mm 56 W/m 2,9 C 4,2 C 8,0 km/h (2 Bft) 100 %
13.11.2017 10:40 4,1 C 4,1 C 4,2 C 91 % 1014,7 hPa 0,0 l/m 3,3 km/h (1 Bft) W-NW 300 0 min 0,000 mm 42 W/m 2,8 C 4,1 C 14,5 km/h (3 Bft) 100 %
13.11.2017 10:50 4,1 C 4,1 C 4,2 C 91 % 1014,9 hPa 0,0 l/m 4,5 km/h (1 Bft) NW 313 0 min 0,000 mm 47 W/m 2,8 C 4,1 C 14,5 km/h (3 Bft) 99 %
13.11.2017 11:00 4,1 C 4,1 C 4,1 C 91 % 1015,0 hPa 0,0 l/m 4,7 km/h (1 Bft) NW 323 0 min 0,025 mm 102 W/m 2,8 C 4,1 C 9,7 km/h (2 Bft) 100 %
13.11.2017 11:10 4,3 C 4,1 C 4,3 C 91 % 1015,0 hPa 0,0 l/m 1,1 km/h (1 Bft) NW 307 10 min 0,000 mm 202 W/m 3,0 C 4,3 C 8,0 km/h (2 Bft) 100 %
13.11.2017 11:20 4,7 C 4,3 C 4,7 C 91 % 1015,0 hPa 0,0 l/m 3,8 km/h (1 Bft) NW 315 0 min 0,000 mm 137 W/m 3,4 C 4,7 C 9,7 km/h (2 Bft) 100 %
13.11.2017 11:30 4,8 C 4,7 C 4,8 C 91 % 1015,0 hPa 0,0 l/m 1,7 km/h (1 Bft) N-NW 329 10 min 0,000 mm 207 W/m 3,5 C 4,8 C 8,0 km/h (2 Bft) 100 %
13.11.2017 11:40 5,2 C 4,8 C 5,2 C 91 % 1014,9 hPa 0,0 l/m 4,3 km/h (1 Bft) NW 314 10 min 0,000 mm 216 W/m 3,9 C 5,2 C 12,9 km/h (3 Bft) 100 %
13.11.2017 11:50 5,3 C 5,2 C 5,4 C 91 % 1015,1 hPa 0,0 l/m 6,7 km/h (2 Bft) N-NW 327 0 min 0,000 mm 135 W/m 4,0 C 5,1 C 19,3 km/h (3 Bft) 100 %
13.11.2017 12:00 5,3 C 5,2 C 5,3 C 91 % 1015,1 hPa 0,0 l/m 3,6 km/h (1 Bft) NW 317 10 min 0,076 mm 385 W/m 4,0 C 5,3 C 9,7 km/h (2 Bft) 100 %
13.11.2017 12:10 5,9 C 5,3 C 5,9 C 91 % 1015,2 hPa 0,0 l/m 5,2 km/h (1 Bft) NW 311 10 min 0,000 mm 183 W/m 4,5 C 5,9 C 9,7 km/h (2 Bft) 100 %
13.11.2017 12:20 5,9 C 5,9 C 5,9 C 91 % 1015,3 hPa 0,0 l/m 3,5 km/h (1 Bft) W-NW 301 0 min 0,000 mm 121 W/m 4,5 C 5,9 C 9,7 km/h (2 Bft) 100 %
13.11.2017 12:30 5,7 C 5,7 C 5,9 C 91 % 1015,3 hPa 0,0 l/m 1,9 km/h (1 Bft) NW 316 0 min 0,000 mm 127 W/m 4,3 C 5,7 C 9,7 km/h (2 Bft) 100 %
13.11.2017 12:40 5,6 C 5,6 C 5,7 C 91 % 1015,2 hPa 0,0 l/m 0,0 km/h (0 Bft) N 5 10 min 0,000 mm 167 W/m 4,2 C 5,6 C 1,6 km/h (1 Bft) 100 %
13.11.2017 12:50 5,7 C 5,6 C 5,7 C 91 % 1015,3 hPa 0,0 l/m 0,0 km/h (0 Bft) N 360 0 min 0,000 mm 134 W/m 4,3 C 5,7 C 0,0 km/h (0 Bft) 100 %
13.11.2017 13:00 5,7 C 5,7 C 5,8 C 91 % 1015,4 hPa 0,0 l/m 0,2 km/h (0 Bft) N-NW 345 0 min 0,077 mm 104 W/m 4,3 C 5,7 C 6,4 km/h (2 Bft) 100 %
13.11.2017 13:10 5,8 C 5,7 C 5,8 C 91 % 1015,6 hPa 0,0 l/m 3,9 km/h (1 Bft) NW 315 0 min 0,000 mm 67 W/m 4,4 C 5,8 C 8,0 km/h (2 Bft) 100 %
13.11.2017 13:20 5,8 C 5,8 C 5,8 C 91 % 1015,7 hPa 0,0 l/m 1,4 km/h (1 Bft) N-NW 333 0 min 0,000 mm 67 W/m 4,4 C 5,8 C 6,4 km/h (2 Bft) 100 %
13.11.2017 13:30 5,7 C 5,7 C 5,8 C 91 % 1015,8 hPa 0,0 l/m 0,4 km/h (0 Bft) N-NW 336 0 min 0,000 mm 111 W/m 4,3 C 5,7 C 4,8 km/h (1 Bft) 100 %
13.11.2017 13:40 5,9 C 5,7 C 6,0 C 91 % 1015,9 hPa 0,0 l/m 1,1 km/h (1 Bft) NW 321 0 min 0,000 mm 111 W/m 4,5 C 5,9 C 9,7 km/h (2 Bft) 100 %
13.11.2017 13:50 5,9 C 5,9 C 6,0 C 90 % 1016,1 hPa 0,0 l/m 4,3 km/h (1 Bft) N-NW 347 0 min 0,000 mm 81 W/m 4,4 C 5,9 C 16,1 km/h (3 Bft) 100 %
13.11.2017 14:00 5,8 C 5,8 C 5,9 C 89 % 1016,1 hPa 0,0 l/m 2,5 km/h (1 Bft) N-NW 329 0 min 0,050 mm 77 W/m 4,1 C 5,8 C 11,3 km/h (2 Bft) 100 %
13.11.2017 14:10 5,8 C 5,7 C 5,8 C 89 % 1016,1 hPa 0,0 l/m 2,3 km/h (1 Bft) NW 317 0 min 0,000 mm 97 W/m 4,1 C 5,8 C 9,7 km/h (2 Bft) 100 %
13.11.2017 14:20 5,8 C 5,7 C 5,8 C 90 % 1016,2 hPa 0,0 l/m 2,8 km/h (1 Bft) N-NW 344 0 min 0,000 mm 97 W/m 4,3 C 5,8 C 9,7 km/h (2 Bft) 100 %
13.11.2017 14:30 5,9 C 5,8 C 5,9 C 90 % 1016,4 hPa 0,0 l/m 0,3 km/h (0 Bft) N-NW 338 0 min 0,000 mm 62 W/m 4,4 C 5,9 C 4,8 km/h (1 Bft) 100 %
13.11.2017 14:40 6,0 C 5,9 C 6,0 C 89 % 1016,4 hPa 0,0 l/m 0,0 km/h (0 Bft) N-NW 338 0 min 0,000 mm 54 W/m 4,3 C 6,0 C 0,0 km/h (0 Bft) 100 %
13.11.2017 14:50 5,9 C 5,9 C 6,0 C 89 % 1016,6 hPa 0,0 l/m 0,0 km/h (0 Bft) N-NW 340 0 min 0,000 mm 76 W/m 4,2 C 5,9 C 1,6 km/h (1 Bft) 100 %
13.11.2017 15:00 5,9 C 5,9 C 5,9 C 89 % 1016,6 hPa 0,0 l/m 0,0 km/h (0 Bft) N-NW 340 0 min 0,026 mm 67 W/m 4,2 C 5,9 C 0,0 km/h (0 Bft) 100 %
13.11.2017 15:10 5,9 C 5,9 C 5,9 C 89 % 1016,7 hPa 0,0 l/m 0,0 km/h (0 Bft) N-NW 340 0 min 0,000 mm 56 W/m 4,2 C 5,9 C 0,0 km/h (0 Bft) 100 %
13.11.2017 15:20 5,9 C 5,9 C 5,9 C 90 % 1016,7 hPa 0,0 l/m 0,0 km/h (0 Bft) N-NW 340 0 min 0,000 mm 69 W/m 4,4 C 5,9 C 0,0 km/h (0 Bft) 100 %
13.11.2017 15:30 5,8 C 5,8 C 5,9 C 89 % 1016,6 hPa 0,0 l/m 0,0 km/h (0 Bft) N-NW 343 0 min 0,000 mm 21 W/m 4,1 C 5,8 C 0,0 km/h (0 Bft) 100 %
13.11.2017 15:40 5,6 C 5,6 C 5,8 C 89 % 1016,8 hPa 0,0 l/m 1,0 km/h (0 Bft) N-NW 340 0 min 0,000 mm 14 W/m 3,9 C 5,6 C 8,0 km/h (2 Bft) 100 %
13.11.2017 15:50 5,3 C 5,3 C 5,6 C 88 % 1016,9 hPa 0,0 l/m 1,1 km/h (1 Bft) N-NW 332 0 min 0,000 mm 14 W/m 3,5 C 5,3 C 6,4 km/h (2 Bft) 100 %
13.11.2017 16:00 5,0 C 5,0 C 5,3 C 88 % 1017,2 hPa 0,0 l/m 0,0 km/h (0 Bft) N-NW 332 0 min 0,025 mm 12 W/m 3,2 C 5,0 C 0,0 km/h (0 Bft) 100 %
13.11.2017 16:10 4,7 C 4,7 C 5,0 C 89 % 1017,2 hPa 0,0 l/m 0,0 km/h (0 Bft) N-NW 332 0 min 0,000 mm 11 W/m 3,0 C 4,7 C 0,0 km/h (0 Bft) 100 %
13.11.2017 16:20 4,4 C 4,4 C 4,7 C 89 % 1017,5 hPa 0,0 l/m 0,4 km/h (0 Bft) N-NW 332 0 min 0,000 mm 9 W/m 2,7 C 4,4 C 4,8 km/h (1 Bft) 100 %
13.11.2017 16:30 4,1 C 4,1 C 4,4 C 90 % 1017,5 hPa 0,0 l/m 0,0 km/h (0 Bft) N-NW 332 0 min 0,000 mm 7 W/m 2,6 C 4,1 C 0,0 km/h (0 Bft) 100 %
13.11.2017 16:40 3,8 C 3,8 C 4,1 C 90 % 1017,6 hPa 0,0 l/m 0,0 km/h (0 Bft) N-NW 332 0 min 0,000 mm 0 W/m 2,3 C 3,8 C 0,0 km/h (0 Bft) 100 %
13.11.2017 16:50 3,6 C 3,6 C 3,8 C 91 % 1017,9 hPa 0,2 l/m 0,0 km/h (0 Bft) N-NW 332 0 min 0,000 mm 0 W/m 2,3 C 3,6 C 0,0 km/h (0 Bft) 100 %
13.11.2017 17:00 3,4 C 3,4 C 3,6 C 91 % 1017,9 hPa 0,0 l/m 0,0 km/h (0 Bft) N-NW 332 0 min 0,000 mm 0 W/m 2,1 C 3,4 C 0,0 km/h (0 Bft) 100 %
13.11.2017 17:10 3,3 C 3,3 C 3,4 C 91 % 1018,0 hPa 0,0 l/m 0,0 km/h (0 Bft) N-NW 332 0 min 0,000 mm 0 W/m 2,0 C 3,3 C 0,0 km/h (0 Bft) 100 %
13.11.2017 17:20 3,3 C 3,3 C 3,3 C 91 % 1018,2 hPa 0,0 l/m 0,0 km/h (0 Bft) N-NW 335 0 min 0,000 mm 0 W/m 2,0 C 3,3 C 0,0 km/h (0 Bft) 100 %
13.11.2017 17:30 3,3 C 3,2 C 3,3 C 91 % 1018,3 hPa 0,0 l/m 0,0 km/h (0 Bft) N-NW 335 0 min 0,000 mm 0 W/m 2,0 C 3,3 C 0,0 km/h (0 Bft) 100 %
13.11.2017 17:40 3,2 C 3,2 C 3,3 C 91 % 1018,3 hPa 0,0 l/m 0,0 km/h (0 Bft) N-NW 335 0 min 0,000 mm 0 W/m 1,9 C 3,2 C 1,6 km/h (1 Bft) 91 %
13.11.2017 17:50 3,1 C 3,1 C 3,2 C 91 % 1018,4 hPa 0,0 l/m 0,0 km/h (0 Bft) N-NW 335 0 min 0,000 mm 0 W/m 1,8 C 3,1 C 0,0 km/h (0 Bft) 100 %
13.11.2017 18:00 3,0 C 3,0 C 3,1 C 91 % 1018,7 hPa 0,0 l/m 0,0 km/h (0 Bft) N-NW 335 0 min 0,000 mm 0 W/m 1,7 C 3,0 C 0,0 km/h (0 Bft) 100 %
13.11.2017 18:10 2,8 C 2,8 C 3,0 C 91 % 1018,8 hPa 0,0 l/m 0,0 km/h (0 Bft) N-NW 335 0 min 0,000 mm 0 W/m 1,5 C 2,8 C 0,0 km/h (0 Bft) 100 %
13.11.2017 18:20 2,8 C 2,8 C 2,8 C 91 % 1019,0 hPa 0,0 l/m 0,0 km/h (0 Bft) N-NW 335 0 min 0,000 mm 0 W/m 1,5 C 2,8 C 0,0 km/h (0 Bft) 100 %
13.11.2017 18:30 2,6 C 2,6 C 2,8 C 91 % 1019,1 hPa 0,0 l/m 0,0 km/h (0 Bft) N-NW 335 0 min 0,000 mm 0 W/m 1,3 C 2,6 C 0,0 km/h (0 Bft) 91 %
13.11.2017 18:40 2,2 C 2,2 C 2,6 C 91 % 1019,3 hPa 0,0 l/m 0,0 km/h (0 Bft) N-NW 335 0 min 0,000 mm 0 W/m 0,9 C 2,2 C 0,0 km/h (0 Bft) 100 %
13.11.2017 18:50 2,2 C 2,2 C 2,2 C 91 % 1019,4 hPa 0,0 l/m 0,0 km/h (0 Bft) N-NW 335 0 min 0,000 mm 0 W/m 0,9 C 2,2 C 0,0 km/h (0 Bft) 100 %
13.11.2017 19:00 2,2 C 2,2 C 2,2 C 91 % 1019,7 hPa 0,0 l/m 0,0 km/h (0 Bft) N-NW 335 0 min 0,000 mm 0 W/m 0,9 C 2,2 C 0,0 km/h (0 Bft) 99 %
13.11.2017 19:10 2,1 C 2,1 C 2,2 C 91 % 1019,8 hPa 0,0 l/m 0,0 km/h (0 Bft) N-NW 335 0 min 0,000 mm 0 W/m 0,8 C 2,1 C 0,0 km/h (0 Bft) 99 %
13.11.2017 19:20 1,8 C 1,8 C 2,1 C 91 % 1019,7 hPa 0,0 l/m 0,0 km/h (0 Bft) N-NW 335 0 min 0,000 mm 0 W/m 0,5 C 1,8 C 0,0 km/h (0 Bft) 100 %
13.11.2017 19:30 1,5 C 1,5 C 1,8 C 91 % 1019,8 hPa 0,0 l/m 0,0 km/h (0 Bft) N-NW 335 0 min 0,000 mm 0 W/m 0,2 C 1,5 C 0,0 km/h (0 Bft) 100 %
13.11.2017 19:40 1,7 C 1,4 C 1,7 C 91 % 1020,0 hPa 0,0 l/m 0,0 km/h (0 Bft) N-NW 335 0 min 0,000 mm 0 W/m 0,4 C 1,7 C 0,0 km/h (0 Bft) 99 %
13.11.2017 19:50 1,8 C 1,7 C 1,8 C 91 % 1020,1 hPa 0,0 l/m 0,0 km/h (0 Bft) N-NW 335 0 min 0,000 mm 0 W/m 0,5 C 1,8 C 0,0 km/h (0 Bft) 100 %
13.11.2017 20:00 1,6 C 1,6 C 1,8 C 91 % 1020,3 hPa 0,0 l/m 0,0 km/h (0 Bft) N-NW 335 0 min 0,000 mm 0 W/m 0,3 C 1,6 C 0,0 km/h (0 Bft) 100 %
13.11.2017 20:10 1,2 C 1,2 C 1,6 C 91 % 1020,5 hPa 0,0 l/m 0,0 km/h (0 Bft) N-NW 335 0 min 0,000 mm 0 W/m -0,1 C 1,2 C 0,0 km/h (0 Bft) 100 %
13.11.2017 20:20 1,0 C 1,0 C 1,2 C 91 % 1020,6 hPa 0,0 l/m 0,0 km/h (0 Bft) N-NW 335 0 min 0,000 mm 0 W/m -0,3 C 1,0 C 0,0 km/h (0 Bft) 100 %
13.11.2017 20:30 0,8 C 0,8 C 1,0 C 91 % 1020,5 hPa 0,0 l/m 0,0 km/h (0 Bft) N-NW 335 0 min 0,000 mm 0 W/m -0,5 C 0,8 C 0,0 km/h (0 Bft) 100 %
13.11.2017 20:40 0,7 C 0,7 C 0,8 C 91 % 1020,7 hPa 0,0 l/m 0,2 km/h (0 Bft) N-NW 335 0 min 0,000 mm 0 W/m -0,6 C 0,7 C 3,2 km/h (1 Bft) 100 %
13.11.2017 20:50 0,5 C 0,5 C 0,7 C 91 % 1020,7 hPa 0,0 l/m 0,4 km/h (0 Bft) N-NW 334 0 min 0,000 mm 0 W/m -0,8 C 0,5 C 4,8 km/h (1 Bft) 100 %
13.11.2017 21:00 0,3 C 0,3 C 0,5 C 91 % 1020,9 hPa 0,0 l/m 0,0 km/h (0 Bft) N-NW 335 0 min 0,000 mm 0 W/m -1,0 C 0,3 C 1,6 km/h (1 Bft) 100 %
13.11.2017 21:10 0,1 C 0,1 C 0,3 C 91 % 1021,1 hPa 0,0 l/m 0,2 km/h (0 Bft) N-NW 335 0 min 0,000 mm 0 W/m -1,2 C 0,1 C 3,2 km/h (1 Bft) 100 %
13.11.2017 21:20 0,1 C 0,0 C 0,1 C 97 % 1021,2 hPa 0,0 l/m 0,8 km/h (0 Bft) N-NW 335 0 min 0,000 mm 0 W/m -0,3 C 0,1 C 4,8 km/h (1 Bft) 92 %
13.11.2017 21:30 -0,1 C -0,1 C 0,1 C 91 % 1021,2 hPa 0,0 l/m 0,2 km/h (0 Bft) N-NW 335 0 min 0,000 mm 0 W/m -1,4 C -0,1 C 3,2 km/h (1 Bft) 100 %
13.11.2017 21:40 -0,2 C -0,2 C -0,1 C 91 % 1021,3 hPa 0,0 l/m 0,0 km/h (0 Bft) N-NW 335 0 min 0,000 mm 0 W/m -1,5 C -0,2 C 0,0 km/h (0 Bft) 100 %
13.11.2017 21:50 -0,6 C -0,6 C -0,2 C 91 % 1021,5 hPa 0,0 l/m 0,0 km/h (0 Bft) N-NW 335 0 min 0,000 mm 0 W/m -1,9 C -0,6 C 0,0 km/h (0 Bft) 100 %
13.11.2017 22:00 -0,7 C -0,7 C -0,6 C 91 % 1021,5 hPa 0,0 l/m 0,0 km/h (0 Bft) N-NW 335 0 min 0,000 mm 0 W/m -2,0 C -0,7 C 0,0 km/h (0 Bft) 100 %
13.11.2017 22:10 -0,5 C -0,7 C -0,5 C 91 % 1021,7 hPa 0,0 l/m 0,0 km/h (0 Bft) N-NW 335 0 min 0,000 mm 0 W/m -1,8 C -0,5 C 0,0 km/h (0 Bft) 100 %
13.11.2017 22:20 -0,6 C -0,6 C -0,5 C 91 % 1021,8 hPa 0,0 l/m 0,0 km/h (0 Bft) N-NW 335 0 min 0,000 mm 0 W/m -1,9 C -0,6 C 0,0 km/h (0 Bft) 99 %
13.11.2017 22:30 -0,7 C -0,7 C -0,6 C 91 % 1021,7 hPa 0,0 l/m 0,0 km/h (0 Bft) N-NW 335 0 min 0,000 mm 0 W/m -2,0 C -0,7 C 0,0 km/h (0 Bft) 100 %
13.11.2017 22:40 -0,8 C -0,8 C -0,7 C 91 % 1021,8 hPa 0,0 l/m 0,0 km/h (0 Bft) N-NW 335 0 min 0,000 mm 0 W/m -2,1 C -0,8 C 0,0 km/h (0 Bft) 100 %
13.11.2017 22:50 -0,9 C -1,0 C -0,8 C 91 % 1021,8 hPa 0,0 l/m 0,0 km/h (0 Bft) N-NW 335 0 min 0,000 mm 0 W/m -2,2 C -0,9 C 0,0 km/h (0 Bft) 100 %
13.11.2017 23:00 -1,1 C -1,1 C -0,9 C 91 % 1021,8 hPa 0,0 l/m 0,0 km/h (0 Bft) N-NW 335 0 min 0,000 mm 0 W/m -2,4 C -1,1 C 0,0 km/h (0 Bft) 100 %
13.11.2017 23:10 -1,2 C -1,2 C -1,1 C 91 % 1021,8 hPa 0,0 l/m 0,0 km/h (0 Bft) N-NW 335 0 min 0,000 mm 0 W/m -2,5 C -1,2 C 0,0 km/h (0 Bft) 100 %
13.11.2017 23:20 -1,3 C -1,3 C -1,2 C 91 % 1022,0 hPa 0,0 l/m 0,0 km/h (0 Bft) N-NW 335 0 min 0,000 mm 0 W/m -2,6 C -1,3 C 0,0 km/h (0 Bft) 100 %
13.11.2017 23:30 -1,4 C -1,4 C -1,3 C 91 % 1022,0 hPa 0,0 l/m 0,0 km/h (0 Bft) N-NW 335 0 min 0,000 mm 0 W/m -2,7 C -1,4 C 0,0 km/h (0 Bft) 100 %
13.11.2017 23:40 -1,5 C -1,5 C -1,4 C 91 % 1022,1 hPa 0,0 l/m 0,0 km/h (0 Bft) N-NW 335 0 min 0,000 mm 0 W/m -2,8 C -1,5 C 0,0 km/h (0 Bft) 100 %
13.11.2017 23:50 -1,6 C -1,6 C -1,5 C 91 % 1022,1 hPa 0,0 l/m 0,0 km/h (0 Bft) N-NW 335 0 min 0,000 mm 0 W/m -2,9 C -1,6 C 0,0 km/h (0 Bft) 100 %
_ Min-Zeit 23:50 23:50 23:50 15:50 00:00 - 02:00 - - - - - 23:50 23:50 02:00 04:50
Minimum _ -1,6 C -1,6 C -1,5 C 88 % 1006,5 hPa - 0,0 km/h (0 Bft) - - - - - -2,9 C -1,6 C 0,0 km/h (0 Bft) 89 %
_ Max-Zeit 13:40 12:20 13:40 21:20 23:40 00:50 00:40 - - 11:10 13:00 12:00 12:10 14:40 00:40 00:00
Maximum _ 6,0 C 5,9 C 6,0 C 97 % 1022,1 hPa 0,2 l/m 9,0 km/h
W (2 Bft)
- - 10 min 0,077 mm 385 W/m 4,5 C 6,0 C 22,5 km/h
W-NW (4 Bft)
100 %
Durchschnitt _ 2,9 C 2,8 C 2,9 C 91 % 1014,7 hPa #0,8 l/m 1,1 km/h (1 Bft) NW - #1:00 h #0,330 mm 87 W/m 1,5 C 2,8 C 4,5 km/h (1 Bft) 99 %
PRIVATE WETTERSTATION BILLIGHEIM-ALLFELD - www.neckar-odenwald-wetter.de - Holger Sonntag